Vorticity
11 13 24 10 1 1 2 2 1 1 2 0 2 0 4 4 2 3 4 5 5 6 7 2 4 3 0 4 6 9 6 8 8 8 9 6 3 4 4 3 4 2 4
-1 -1 10 25 15 1 2 3 1 1 2 1 -0 2 1 5 3 2 3 4 4 5 7 2 3 4 1 2 6 7 7 7 8 8 7 6 5 3 4 4 4 3 3
6 2 -7 -2 17 20 3 -0 1 2 0 1 1 2 1 2 4 2 2 4 3 4 5 4 3 4 2 1 4 8 6 6 7 7 7 5 5 5 6 5 4 2 3
8 7 5 -2 -9 8 21 5 1 -0 3 1 1 -1 1 0 4 3 2 3 3 3 4 4 4 4 4 2 2 6 6 6 7 7 6 6 6 6 6 6 3 2 3
4 4 9 9 3 -4 -4 31 7 -0 -1 2 1 0 -1 1 2 5 3 2 3 3 4 4 4 4 4 3 2 2 4 5 6 7 6 6 7 7 6 6 4 3 3
3 4 4 7 8 6 11 -4 25 18 5 -1 1 3 0 1 1 3 4 2 2 3 3 4 4 4 5 3 4 3 2 4 7 7 7 7 7 6 6 5 4 3 3
3 2 5 6 7 8 2 -2 19 9 15 16 1 -2 6 2 2 2 4 3 2 3 3 3 4 4 5 4 4 4 5 6 4 4 7 7 6 5 5 5 4 3 4
3 4 8 7 5 9 7 6 -2 1 2 21 15 4 -1 4 4 3 2 3 3 3 3 3 4 4 4 5 4 4 4 6 6 4 2 5 6 5 6 5 4 4 4
5 5 1 4 9 13 11 20 7 11 8 2 11 14 5 2 3 5 5 3 3 3 3 3 3 4 4 4 4 4 4 5 7 5 4 3 5 5 5 4 4 5 4
1 9 15 4 3 17 12 10 10 8 3 10 12 12 10 7 6 3 5 6 4 3 4 3 3 3 4 4 4 4 4 5 6 7 5 3 3 4 5 5 4 4 5
7 3 -14 -4 -5 2 9 11 3 9 6 5 6 15 13 5 4 7 6 4 5 3 3 4 4 4 4 4 4 4 4 4 5 6 6 4 3 2 3 3 4 4 4
6 4 7 7 4 -1 -3 3 2 3 1 5 8 7 15 9 5 5 4 5 4 4 4 5 5 5 4 4 4 4 4 4 4 6 7 5 4 3 3 2 2 3 4
4 6 7 5 6 8 7 2 -1 6 -2 13 7 14 9 14 5 3 6 3 4 5 6 4 8 4 3 3 4 4 4 4 5 5 6 6 5 4 3 2 2 2 3
3 6 7 11 4 5 3 2 1 -4 6 3 -1 6 13 12 9 4 5 13 5 4 5 6 6 3 4 4 4 3 4 4 4 5 6 5 6 4 4 3 2 2 2
6 8 13 8 6 5 3 3 6 7 6 11 -3 10 6 23 12 9 -2 11 6 9 -3 3 4 4 3 3 4 4 3 4 4 4 5 5 5 5 5 4 3 3 2
4 7 5 9 9 7 3 6 3 0 4 -4 8 15 7 20 11 13 2 6 2 35 -9 9 3 2 4 3 4 4 4 3 4 4 4 5 4 5 5 5 5 4 4
2 3 8 5 7 13 6 -0 4 2 15 -4 12 15 30 12 15 6 -4 5 12 -3 -5 -24 4 2 3 3 4 4 4 4 4 4 4 5 6 3 4 2 6 3 5
5 4 5 9 5 5 12 5 5 2 6 -2 9 16 7 31 -7 6 6 2 -2 4 -5 35 2 5 3 4 4 4 4 4 4 5 4 4 5 3 -0 -3 1 4 4
8 8 6 10 12 5 7 6 5 6 2 -1 10 18 11 14 -15 20 14 3 -21 -17 1 -7 3 3 4 4 4 4 5 5 4 5 4 5 5 2 -3 2 6 8 5
10 8 5 6 7 7 7 2 6 6 3 7 12 2 26 -1 1 9 3 27 -2 23 -6 9 8 3 4 4 4 5 5 5 5 6 6 6 4 -0 5 4 2 9 -2
8 1 -5 -0 8 10 10 14 10 8 10 8 13 15 45 7 24 18 4 -32 28 -21 21 -12 -2 1 4 3 5 6 5 4 5 6 6 5 -3 6 5 -10 12 -1 13
4 -1 21 9 8 14 19 14 9 11 2 25 17 33 24 10 13 19 18 13 4 -7 -11 34 32 16 -0 4 6 5 4 6 4 5 7 7 5 9 1 9 2 6 -1
20 14 9 28 10 18 25 5 14 8 3 22 29 33 -13 37 41 15 3 5 6 19 -5 -17 -35 -14 9 4 1 3 5 3 6 4 -4 5 6 -8 -9 -4 22 17 5
12 2 8 10 21 16 8 11 9 17 17 19 23 14 8 6 20 62 4 -9 21 17 22 11 -4 8 5 11 -9 10 -8 -1 11 3 7 36 45 32 32 30 17 34 24
22 25 20 24 21 20 11 8 -1 5 -16 -21 36 -7 21 20 10 59 18 22 22 24 40 33 25 67 43 21 31 35 21 16 32 11 -5 0 -12 -7 15 -10 -3 2 -5
19 16 13 15 16 14 -8 9 -0 25 35 33 49 1 -2 -31 0 16 14 10 21 30 38 23 14 5 -7 5 4 -14 -9 15 -28 5 2 8 -12 16 8 -6 5 1 2
Height
5852 5852 5854 5856 5857 5860 5860 5862 5863 5866 5868 5869 5871 5872 5873 5874 5874 5875 5876 5876 5877 5877 5877 5877 5877 5877 5877 5876 5875 5874 5874 5873 5873 5873 5873 5873 5873 5872 5872 5871 5871 5870 5869
5849 5850 5850 5851 5854 5855 5858 5859 5860 5863 5865 5867 5868 5870 5871 5872 5872 5874 5874 5874 5875 5876 5876 5877 5877 5877 5876 5875 5874 5874 5873 5873 5873 5872 5872 5872 5872 5871 5871 5870 5870 5869 5868
5845 5846 5847 5848 5849 5851 5853 5856 5857 5858 5861 5864 5865 5867 5868 5870 5870 5871 5872 5873 5874 5875 5875 5876 5876 5876 5876 5875 5874 5873 5873 5872 5872 5872 5872 5872 5871 5871 5870 5869 5869 5868 5867
5840 5841 5842 5843 5845 5846 5848 5850 5853 5855 5857 5859 5862 5864 5865 5867 5868 5869 5870 5871 5871 5872 5874 5874 5875 5875 5874 5874 5874 5873 5873 5872 5871 5871 5871 5870 5870 5870 5869 5869 5868 5867 5866
5835 5836 5838 5838 5840 5842 5844 5846 5848 5851 5853 5855 5857 5860 5861 5863 5865 5866 5867 5868 5869 5870 5871 5872 5873 5873 5873 5872 5872 5872 5872 5871 5870 5870 5870 5869 5869 5868 5868 5868 5867 5866 5866
5828 5830 5831 5833 5834 5837 5839 5841 5844 5846 5849 5851 5852 5854 5857 5859 5861 5862 5864 5865 5866 5867 5869 5870 5871 5871 5871 5870 5870 5870 5870 5870 5869 5869 5868 5868 5867 5866 5866 5866 5866 5866 5865
5822 5824 5825 5827 5829 5831 5834 5836 5839 5841 5842 5845 5848 5850 5851 5853 5855 5858 5859 5861 5862 5864 5865 5867 5868 5868 5869 5869 5868 5868 5869 5868 5868 5868 5867 5866 5866 5865 5864 5864 5864 5863 5863
5816 5817 5819 5821 5823 5825 5827 5831 5833 5834 5836 5838 5842 5844 5846 5849 5850 5853 5854 5856 5859 5861 5861 5863 5865 5866 5866 5867 5866 5866 5867 5866 5866 5866 5865 5865 5865 5864 5864 5863 5862 5861 5861
5808 5809 5814 5816 5817 5819 5821 5823 5825 5827 5829 5831 5833 5836 5839 5842 5846 5848 5851 5852 5854 5855 5857 5859 5861 5862 5863 5863 5863 5863 5863 5863 5863 5863 5863 5863 5862 5862 5862 5861 5860 5859 5858
5800 5803 5805 5807 5809 5812 5815 5816 5818 5820 5821 5824 5826 5828 5831 5834 5839 5843 5846 5847 5849 5850 5852 5854 5856 5858 5859 5860 5860 5860 5861 5861 5860 5860 5860 5860 5859 5859 5858 5858 5857 5857 5855
5793 5796 5800 5800 5802 5804 5805 5809 5810 5812 5814 5816 5818 5821 5824 5827 5831 5836 5840 5841 5843 5844 5846 5848 5850 5853 5855 5856 5856 5856 5857 5857 5857 5857 5857 5857 5856 5855 5854 5854 5854 5853 5852
5783 5787 5791 5792 5794 5796 5797 5800 5802 5804 5807 5809 5811 5813 5817 5821 5823 5827 5831 5834 5836 5838 5840 5842 5844 5846 5848 5850 5851 5852 5852 5853 5853 5853 5853 5853 5852 5852 5851 5850 5850 5849 5849
5773 5777 5780 5782 5784 5786 5789 5791 5794 5796 5799 5802 5803 5805 5808 5813 5817 5819 5823 5826 5829 5831 5833 5835 5837 5838 5841 5843 5845 5846 5846 5847 5848 5849 5849 5848 5848 5849 5849 5847 5846 5845 5845
5760 5764 5770 5773 5776 5779 5782 5784 5785 5788 5789 5791 5794 5796 5799 5803 5808 5811 5815 5818 5821 5823 5825 5827 5830 5832 5834 5836 5839 5840 5841 5841 5842 5843 5844 5844 5843 5843 5844 5843 5842 5841 5840
5748 5754 5759 5763 5766 5770 5773 5776 5778 5780 5781 5782 5783 5786 5790 5793 5797 5802 5807 5811 5812 5815 5816 5819 5821 5824 5827 5828 5831 5833 5834 5835 5836 5838 5838 5839 5839 5838 5838 5839 5838 5837 5836
5733 5741 5747 5752 5757 5761 5764 5766 5769 5771 5772 5772 5774 5777 5779 5784 5788 5793 5798 5801 5805 5806 5806 5811 5813 5816 5818 5822 5825 5826 5827 5829 5829 5831 5833 5833 5833 5834 5834 5833 5832 5832 5831
5722 5727 5733 5738 5742 5748 5752 5755 5758 5762 5763 5763 5764 5766 5768 5771 5778 5785 5788 5787 5795 5796 5796 5801 5806 5809 5810 5813 5816 5819 5820 5822 5823 5824 5825 5826 5828 5827 5826 5826 5826 5825 5825
5710 5717 5721 5728 5731 5733 5737 5742 5748 5752 5752 5755 5754 5754 5755 5760 5767 5776 5779 5781 5781 5781 5785 5791 5798 5800 5802 5805 5808 5811 5813 5814 5816 5817 5817 5818 5819 5819 5820 5820 5819 5818 5817
5700 5707 5711 5718 5720 5721 5728 5732 5736 5739 5741 5743 5743 5742 5743 5748 5755 5762 5768 5771 5767 5772 5776 5782 5787 5789 5795 5797 5799 5801 5804 5807 5808 5809 5810 5811 5811 5811 5811 5812 5812 5811 5810
5689 5696 5702 5705 5710 5712 5716 5720 5724 5727 5729 5729 5732 5732 5733 5737 5744 5751 5758 5759 5760 5766 5769 5771 5775 5782 5785 5787 5790 5792 5794 5796 5798 5800 5801 5802 5802 5803 5803 5801 5803 5802 5800
5681 5686 5689 5693 5696 5703 5706 5710 5714 5715 5716 5717 5719 5718 5720 5727 5733 5739 5748 5750 5751 5755 5759 5761 5768 5770 5773 5777 5780 5782 5784 5786 5788 5790 5792 5792 5792 5793 5795 5792 5793 5793 5792
5671 5675 5678 5680 5686 5692 5696 5701 5704 5705 5706 5708 5707 5708 5712 5717 5725 5729 5736 5741 5744 5746 5748 5752 5755 5759 5763 5766 5770 5770 5772 5775 5777 5779 5781 5782 5783 5784 5783 5782 5782 5782 5781
5660 5665 5669 5673 5678 5683 5687 5692 5695 5696 5696 5697 5698 5702 5709 5711 5715 5721 5726 5729 5733 5736 5739 5743 5744 5747 5752 5754 5756 5760 5762 5765 5765 5766 5769 5771 5772 5772 5772 5771 5773 5771 5771
5653 5657 5661 5666 5670 5676 5680 5684 5686 5688 5690 5689 5691 5698 5702 5705 5706 5710 5715 5720 5721 5724 5728 5730 5734 5738 5738 5742 5745 5748 5749 5750 5750 5755 5757 5759 5762 5763 5759 5760 5760 5759 5761
5649 5653 5658 5661 5666 5670 5673 5676 5679 5682 5685 5684 5687 5688 5692 5698 5698 5701 5706 5708 5711 5714 5717 5720 5724 5727 5729 5731 5734 5737 5738 5740 5742 5744 5747 5749 5751 5751 5749 5750 5750 5750 5752
5647 5651 5654 5657 5660 5664 5666 5671 5674 5676 5677 5679 5680 5683 5686 5688 5692 5694 5697 5700 5702 5703 5706 5711 5716 5719 5722 5723 5726 5729 5731 5733 5735 5736 5737 5739 5739 5740 5740 5738 5739 5739 5740